User: anonymous   Login
Location: Pella
(41.4080°N, 92.9160°W)
Time: 13:55:52
(UTC-05:00)
Language:

Iridium 91 - Orbit

View from above orbital plane
View from above orbital plane
View from above satellite
View from above satellite

Ground track
Ground track

The orbit data is extracted from the following two-line orbital elements,

1 27372U 02005A   16243.44217682  .00000022  00000-0  83057-6 0  9991
2 27372  86.3951  49.3537 0002312  92.3386 321.8507 14.34214026769954
Epoch (UTC): 30 August 2016 10:36:44
Eccentricity: 0.0002312
inclination: 86.3951°
perigee height: 776 km
apogee height: 779 km
right ascension of ascending node: 49.3537°
argument of perigee: 92.3386°
revolutions per day: 14.34214026
mean anomaly at epoch: 321.8507°
orbit number at epoch: 76995

The dashed part of the orbit path shows where the satellite is in the earth's shadow,  

DLR